Location: *
(49.3500°N, 12.6000°E)
Time: 19:53:47
(UTC+00:00)

STARLINK-46 - Pass Details

Date: 18 October 2019
Orbit: 357 x 394 km, 53.0° (Epoch: 12 November)

Event Time Altitude Azimuth Distance (km) Brightness Sun altitude
Rises 18:09:38 0° 290° (WNW) 2,246 8.2 -19.5°
Maximum altitude 18:14:35 30° 217° (SW) 726 4.5 -20.3°
Enters shadow 18:15:01 28° 200° (SSW) 750 4.4 -20.4°
